{"data":{"norad_id":63668,"intl_designator":"2025-085E","name":"STARLINK-11663 [DTC]","alt_names":[],"object_type":"PAYLOAD","status":"ACTIVE","operator":null,"country":"US","launch_date":"2025-04-28","launch_site_code":"AFETR","launch_vehicle":null,"mission":null,"orbit_class":"UNKNOWN","rcs_meters":null,"size_class":null,"mass_kg":null,"dimensions":null,"purposes":["comms"],"wikipedia_slug":null,"has_3d_model":false,"image_url":null,"decayed_at":null,"tle_current":{"epoch":"2026-05-25T02:05:33.016416Z","epoch_age_seconds":61431,"freshness":"FRESH","line1":"1 63668U 25085E   26145.08718769  .00251764  00000+0  18957-2 0  9999","line2":"2 63668  43.0009 178.2346 0001707 234.4965 125.5743 15.70977536 62269","mean_motion":15.70977536,"eccentricity":0.0001707,"inclination_deg":43.0009,"raan_deg":178.2346,"arg_perigee_deg":234.4965,"mean_anomaly_deg":125.5743,"bstar":0.0018957,"rev_number":6226,"period_min":91.66267289006,"perigee_km":354.95245202507,"apogee_km":357.2515212151,"semimajor_km":6734.2389866201,"source":"CELESTRAK","updated_at":"2026-05-25T13:38:20.090878Z"}}}